Location: Balsareny
(41.8670°N, 1.8830°E)
Time: 05:50:42
(UTC+02:00)

Tiangong - Pass Details

Date: 24 June 2021
Orbit: 373 x 386 km, 41.5° (Epoch: 28 July)

Event Time Altitude Azimuth Distance (km) Brightness Sun altitude
Exits shadow 03:56:51 34° 121° (ESE) 646 2.1 -18.9°
Drops below altitude 10° 03:59:04 10° 89° (E) 1,390 4.3 -18.7°
Sets 04:01:12 0° 82° (E) 2,247 5.5 -18.5°
